Orbital elements:
2016 US109
Epoch 2016 July 31.0 TT = JDT 2457600.5                 MPC
M 359.66881              (2000.0)            P               Q
n   0.00457678     Peri.  173.81414     +0.24253972     -0.02200143
a  35.9277200      Node   256.18682     +0.84178388     +0.50174726
e   0.9482324      Incl.   87.16627     +0.48225967     -0.86473442
P 215              H   17.2           G   0.15           U   4
Residuals in seconds of arc
161019 G96  0.2-  0.3+    161026 926  0.1-  0.0     161030 I52  1.0-  0.7-
161019 G96  0.5+  0.7+    161026 I52  0.1+  0.1-    161030 I52  0.2-  0.8-
161019 G96  0.1+  0.5+    161026 926  0.2-  0.1+    161030 I52  0.5-  0.5-
161019 G96  0.4+  0.5+    161026 I52  0.4+  0.4+    161030 I52  0.5-  0.8-
161019 G96  0.3-  0.6+    161026 926  0.3-  0.1+    161101 Q62  0.1+  0.1-
161019 G96  0.2-  0.2+    161026 300  0.4-  0.8+    161101 Q62  0.1+  0.1-
161019 G96  0.4-  0.1+    161026 300  0.5-  1.5+    161101 Q62  0.0   0.0
161019 G96  0.0   0.5+    161026 300  0.1-  0.2+    161101 Q62  0.4+  0.2+
161019 G96  0.0   0.1-    161026 300  0.5+  0.3+    161101 Q62  0.1-  0.2+
161019 G96  0.1+  0.4+    161027 I52  0.4-  0.2+    161103 926  0.1-  1.1-
161019 G96  0.3-  0.1+    161027 I52  1.2-  0.4-    161103 926  0.4+  0.4-
161020 J95  0.7+  0.4-    161027 I52  0.1-  0.1+    161103 926  0.1+  0.2+
161020 J95  0.6-  0.9-    161027 I52  0.8-  0.4-    161104 658  0.7-  0.9+
161020 G96  0.1+  0.3-    161029 104  0.2+  0.0     161104 658  1.5-  0.7+
161020 G96  0.2+  0.3+    161029 104  0.4+  0.0     161104 658  0.5-  0.7+
161020 G96  0.1+  0.7+    161029 104  0.9+  0.1+    161105 I52  0.0   0.2-
161020 G96  0.4-  0.5+    161029 926  0.1-  0.2+    161105 I52  0.5+  0.0
161023 461  0.1+  0.2-    161029 926  0.3-  0.1+    161105 I52  0.0   0.3-
161023 461  0.4+  0.2-    161029 926  0.0   0.1+    161105 I52  0.0   0.1-
161023 461  0.1+  0.1+    161030 A71  2.7+  0.7+    161106 G96  0.3+  0.0
161023 H21  0.7+  0.6+    161030 A71  0.5+  0.1-    161106 G96  0.5+  0.1+
161023 H21  0.5+  1.7+    161030 A71  1.3+  0.5-    161106 H36  0.0   0.2+
161024 H06  0.3-  0.6-    161030 204  0.0   0.3+    161106 H36  0.3-  0.1+
161024 H06  0.5-  0.7-    161030 204  0.1-  0.2-    161106 H36  0.0   0.4-
161024 H06  1.0-  0.5-    161030 204  0.1-  0.3-

Ephemeris:
2016 US109               a,e,i = 35.93, 0.95, 87                 q = 1.8599
Date    TT    R. A. (2000) Decl.     Delta      r     Elong.  Phase     V
2016 10 07    07 26 28.7 +31 42 05   1.6507  1.8607    85.5    32.4    21.0
...
2016 10 22    07 17 18.3 +22 49 46   1.3978  1.8645   101.0    31.6    20.6
...
2016 10 30    07 07 26.3 +16 50 03   1.2794  1.8739   110.5    29.8    20.4
...
2016 11 05    06 57 24.7 +11 39 43   1.2045  1.8843   117.9    27.7    20.2
2016 11 06    06 55 30.7 +10 44 39   1.1934  1.8863   119.1    27.3    20.2
2016 11 07    06 53 32.7 +09 48 40   1.1829  1.8884   120.4    26.9    20.2
...
2016 11 13    06 40 22.2 +03 55 45   1.1303  1.9024   127.5    24.4    20.0
...
2016 11 21    06 19 19.8 -04 23 22   1.0933  1.9253   135.3    21.2    19.9
...
2016 12 06    05 32 33.1 -18 54 20   1.1393  1.9801   137.4    19.7    20.0

A. U. Tomatic                (C) Copyright 2016 MPC           M.P.E.C. 2016-V46




More information about the Iaude mailing list